| time (UTC) | temp C | wind direction | speed KPH | gust KPH | rain 1hr cm | rain 24hr cm | rain mn cm | humidity % | barometer mb |
| 20260504014505 | 9 | 199 | 0.0 | 0.0 | 0.00 | 0.00 | 0.00 | 75 | 1012.1 |
| 20260504013003 | 9 | 203 | 0.0 | 0.0 | 0.00 | 0.00 | 0.00 | 75 | 1012.0 |
| 20260504011600 | 10 | 202 | 0.0 | 0.0 | 0.00 | 0.00 | 0.00 | 74 | 1011.9 |
| 20260504010123 | 10 | 205 | 0.0 | 0.0 | 0.00 | 0.00 | 0.00 | 74 | 1011.9 |
| 20260504004559 | 10 | 198 | 0.0 | 0.0 | 0.00 | 0.00 | 0.00 | 73 | 1012.0 |
| 20260504003057 | 10 | 209 | 0.0 | 0.0 | 0.00 | 0.00 | 0.00 | 71 | 1012.1 |
| 20260504001610 | 10 | 206 | 0.0 | 14.5 | 0.00 | 0.00 | 0.00 | 69 | 1012.2 |
| 20260504000105 | 10 | 223 | 0.0 | 25.7 | 0.00 | 0.00 | 0.00 | 67 | 1012.5 |
| 20260503234555 | 10 | 224 | 4.8 | 33.8 | 0.00 | 0.00 | 0.00 | 65 | 1012.8 |
| 20260503233054 | 11 | 250 | 12.9 | 35.4 | 0.00 | 0.00 | 0.00 | 62 | 1012.7 |
| 20260503231555 | 12 | 271 | 8.0 | 22.5 | 0.00 | 0.00 | 0.00 | 57 | 1012.8 |
| 20260503230059 | 13 | 267 | 0.0 | 25.7 | 0.00 | 0.00 | 0.00 | 49 | 1012.5 |
| 20260503224553 | 14 | 238 | 0.0 | 11.3 | 0.00 | 0.00 | 0.00 | 44 | 1012.1 |
| 20260503223051 | 15 | 236 | 0.0 | 11.3 | 0.00 | 0.00 | 0.00 | 42 | 1012.2 |
| 20260503221551 | 15 | 212 | 0.0 | 9.7 | 0.00 | 0.00 | 0.00 | 41 | 1012.3 |
| 20260503220049 | 15 | 238 | 1.6 | 17.7 | 0.00 | 0.00 | 0.00 | 41 | 1012.4 |
| 20260503214554 | 15 | 270 | 0.0 | 29.0 | 0.00 | 0.00 | 0.00 | 41 | 1012.5 |
| 20260503213117 | 15 | 232 | 0.0 | 29.0 | 0.00 | 0.00 | 0.00 | 40 | 1012.6 |
| 20260503211613 | 15 | 248 | 0.0 | 19.3 | 0.00 | 0.00 | 0.00 | 40 | 1012.6 |
| 20260503210044 | 15 | 240 | 8.0 | 29.0 | 0.00 | 0.00 | 0.00 | 41 | 1012.8 |
| 20260503204558 | 15 | 220 | 4.8 | 29.0 | 0.00 | 0.00 | 0.00 | 39 | 1012.9 |
| 20260503203041 | 15 | 224 | 0.0 | 30.6 | 0.00 | 0.00 | 0.00 | 42 | 1013.1 |
| 20260503201540 | 15 | 231 | 0.0 | 30.6 | 0.00 | 0.00 | 0.00 | 41 | 1013.3 |
| 20260503200037 | 15 | 248 | 9.7 | 33.8 | 0.00 | 0.00 | 0.00 | 41 | 1013.4 |
| 20260503194535 | 15 | 244 | 0.0 | 16.1 | 0.00 | 0.00 | 0.00 | 43 | 1013.5 |
| 20260503193033 | 15 | 286 | 1.6 | 29.0 | 0.00 | 0.00 | 0.00 | 38 | 1013.7 |
| 20260503191533 | 16 | 247 | 0.0 | 30.6 | 0.00 | 0.00 | 0.00 | 41 | 1014.1 |
| 20260503190029 | 15 | 216 | 6.4 | 33.8 | 0.00 | 0.00 | 0.00 | 40 | 1014.3 |
| 20260503184527 | 15 | 214 | 6.4 | 32.2 | 0.00 | 0.00 | 0.00 | 44 | 1014.6 |
| 20260503183024 | 15 | 207 | 6.4 | 33.8 | 0.00 | 0.00 | 0.00 | 44 | 1014.8 |
| 20260503181520 | 15 | 294 | 0.0 | 35.4 | 0.00 | 0.00 | 0.00 | 42 | 1015.0 |
| 20260503180028 | 15 | 197 | 6.4 | 43.5 | 0.00 | 0.00 | 0.00 | 41 | 1015.1 |
| 20260503174521 | 15 | 275 | 9.7 | 32.2 | 0.00 | 0.00 | 0.00 | 40 | 1015.2 |
| 20260503173016 | 15 | 234 | 0.0 | 32.2 | 0.00 | 0.00 | 0.00 | 43 | 1015.4 |
| 20260503171518 | 15 | 221 | 16.1 | 33.8 | 0.00 | 0.00 | 0.00 | 41 | 1015.6 |
| 20260503081536 | 0 | 300 | 0.0 | 0.0 | 0.00 | 0.00 | 0.00 | 90 | 1016.6 |
| 20260503071528 | 0 | 300 | 0.0 | 0.0 | 0.00 | 0.00 | 0.00 | 89 | 1016.8 |
| 20260503054517 | 1 | 300 | 0.0 | 0.0 | 0.00 | 0.00 | 0.00 | 85 | 1017.0 |
| 20260503053005 | 1 | 300 | 0.0 | 0.0 | 0.00 | 0.00 | 0.00 | 84 | 1017.0 |
| 20260503051501 | 1 | 300 | 0.0 | 0.0 | 0.00 | 0.00 | 0.00 | 83 | 1016.9 |
| 20260503050103 | 1 | 300 | 0.0 | 0.0 | 0.00 | 0.00 | 0.00 | 83 | 1016.9 |
| 20260503044557 | 2 | 300 | 0.0 | 0.0 | 0.00 | 0.00 | 0.00 | 82 | 1016.9 |
| 20260503043057 | 2 | 300 | 0.0 | 0.0 | 0.00 | 0.00 | 0.00 | 82 | 1016.8 |
| 20260503041551 | 3 | 300 | 0.0 | 0.0 | 0.00 | 0.00 | 0.00 | 82 | 1016.7 |
| 20260503040048 | 3 | 300 | 0.0 | 0.0 | 0.00 | 0.00 | 0.00 | 82 | 1016.8 |
| 20260503034552 | 3 | 300 | 0.0 | 0.0 | 0.00 | 0.00 | 0.00 | 81 | 1016.9 |
| 20260503033057 | 3 | 300 | 0.0 | 0.0 | 0.00 | 0.00 | 0.00 | 81 | 1017.0 |
| 20260503031547 | 3 | 300 | 0.0 | 0.0 | 0.00 | 0.00 | 0.00 | 81 | 1017.1 |
| 20260503030048 | 4 | 300 | 0.0 | 0.0 | 0.00 | 0.00 | 0.00 | 79 | 1017.1 |
| 20260503024550 | 4 | 300 | 0.0 | 0.0 | 0.00 | 0.00 | 0.00 | 79 | 1017.1 |
| 20260503023049 | 4 | 300 | 0.0 | 0.0 | 0.00 | 0.00 | 0.00 | 76 | 1017.2 |
| 20260503021544 | 5 | 300 | 0.0 | 0.0 | 0.00 | 0.00 | 0.00 | 73 | 1017.3 |
| 20260503020047 | 5 | 300 | 0.0 | 0.0 | 0.00 | 0.00 | 0.00 | 71 | 1017.2 |